Location: El Centro
(32.7920°N, 115.5620°W)
Time: 10:31:49
(UTC-07:00)

Hamsat - Visible Passes

Search period start: 02 September 2014 00:00
Search period end: 12 September 2014 00:00
Orbit: 595 x 627 km, 97.6° (Epoch: 01 September)

Date Brightness Start Highest point End Pass type
(mag) Time Alt. Az. Time Alt. Az. Time Alt. Az.
04 Sep ? 05:33:28 10° ENE 05:35:43 14° E 05:37:58 10° SE visible
05 Sep ? 05:47:08 10° NE 05:50:24 21° E 05:53:38 10° SE visible
10 Sep ? 05:26:01 10° ENE 05:27:11 11° E 05:28:20 10° ESE visible
11 Sep ? 05:39:06 10° NE 05:41:52 17° E 05:44:37 10° SE visible
